Overview Statistics Trail Chart Weather Telemetry Raw packets
 

This is the latest recevied weather packets stored in our database for station/object K7MT-WX. If no packets are shown the sender has not sent any weather packets the latest 10 day(s).

<< 4 5 6 7 8 9 10 >>
Time Temp. Humidity Pressure Rain* Wind** Luminosity Snow
1788491268 19.44° C 45% 1008.9 hPa 0 mm - - -
1788490368 19.44° C 42% 1008.8 hPa 0 mm - - -
1788489468 20° C 40% 1008.7 hPa 0 mm - - -
1788488568 21.11° C 37% 1008.5 hPa 0 mm - - -
1788487668 21.11° C 38% 1008.3 hPa 0 mm - - -
1788486768 22.22° C 36% 1008.1 hPa 0 mm - - -
1788485868 22.78° C 33% 1008.1 hPa 0 mm - - -
1788484968 23.33° C 33% 1007.9 hPa 0 mm - - -
1788484068 23.33° C 31% 1007.9 hPa 0 mm - - -
1788483168 23.33° C 32% 1007.8 hPa 0 mm - - -
1788482238 23.33° C 31% 1007.8 hPa 0 mm - - -
1788481338 23.89° C 30% 1007.7 hPa 0 mm - - -
1788480438 23.89° C 31% 1007.7 hPa 0 mm - - -
1788479538 24.44° C 30% 1007.7 hPa 0 mm - - -
1788478638 24.44° C 30% 1007.8 hPa 0 mm - - -
1788477738 25° C 27% 1007.9 hPa 0 mm - - -
1788476838 25° C 30% 1008 hPa 0 mm - - -
1788475938 25° C 27% 1008 hPa 0 mm - - -
1788475038 24.44° C 29% 1008 hPa 0 mm - - -
1788474138 25° C 27% 1008.1 hPa 0 mm - - -
1788473238 25.56° C 26% 1008.1 hPa 0 mm - - -
1788472338 25° C 28% 1008.2 hPa 0 mm - - -
1788471408 24.44° C 28% 1008.3 hPa 0 mm - - -
1788470508 24.44° C 30% 1008.2 hPa 0 mm - - -
1788469608 23.89° C 29% 1008.2 hPa 0 mm - - -

* Rain latest hour (hover to see other rain measurements)
** Current wind speed in m/s (hover to see current wind gust speed)